Location: Bailen
(14.1842°N, 120.7958°E)
Time: 18:14:49
(UTC+00:00)

COSMO-SKYMED 1 - Pass Details

Date: 12 January 2026
Orbit: 577 x 579 km, 97.9° (Epoch: 17 February)

Event Time Altitude Azimuth Distance (km) Brightness Sun altitude
Rises 21:23:17 0° 153° (SSE) 2,786 6.7 -14.7°
Reaches altitude 10° 21:25:32 10° 145° (SE) 1,889 5.9 -14.2°
Maximum altitude 21:29:21 38° 77° (ENE) 888 3.9 -13.3°
Drops below altitude 10° 21:33:09 10° 8° (N) 1,891 4.9 -12.5°
Sets 21:35:24 0° 1° (N) 2,790 5.7 -12.0°
